Time,TemperatureF,DewpointF,PressureIn,WindDirection,WindDirectionDegrees,WindSpeedMPH,WindSpeedGustMPH,Humidity,HourlyPrecipIn,Conditions,Clouds,dailyrainin,SoftwareType,DateUTC
2013-03-24 00:00:00,30.9,5.1,30.18,East,100,12.0,20.0,33,0.00,CLR,CLR,0.00,WeatherDisplay:10.37,2013-03-24 00:00:00,
2013-03-24 00:10:00,30.9,5.1,30.18,East,93,12.0,16.0,33,0.00,CLR,CLR,0.00,WeatherDisplay:10.37,2013-03-24 00:10:00,
2013-03-24 00:15:00,30.9,5.1,30.18,East,97,10.0,17.0,33,0.00,CLR,CLR,0.00,WeatherDisplay:10.37,2013-03-24 00:15:00,
2013-03-24 00:20:00,30.9,5.1,30.18,East,98,14.0,18.0,33,0.00,CLR,CLR,0.00,WeatherDisplay:10.37,2013-03-24 00:20:00,
2013-03-24 00:30:00,30.7,5.6,30.18,East,94,12.0,16.0,34,0.00,CLR,CLR,0.00,WeatherDisplay:10.37,2013-03-24 00:30:00,
2013-03-24 00:40:00,30.6,6.1,30.18,East,99,13.0,17.0,35,0.00,CLR,CLR,0.00,WeatherDisplay:10.37,2013-03-24 00:40:00,
2013-03-24 00:50:00,30.7,5.6,30.18,East,92,12.0,16.0,34,0.00,CLR,CLR,0.00,WeatherDisplay:10.37,2013-03-24 00:50:00,
2013-03-24 00:55:00,30.7,5.6,30.18,East,93,14.0,17.0,34,0.00,CLR,CLR,0.00,WeatherDisplay:10.37,2013-03-24 00:55:00,
2013-03-24 01:05:00,30.7,5.6,30.18,East,97,13.0,16.0,34,0.00,CLR,CLR,0.00,WeatherDisplay:10.37,2013-03-24 01:05:00,
2013-03-24 01:10:00,30.7,5.0,30.18,East,93,10.0,17.0,33,0.00,CLR,CLR,0.00,WeatherDisplay:10.37,2013-03-24 01:10:00,
2013-03-24 01:20:00,30.7,5.0,30.18,East,93,8.0,15.0,33,0.00,CLR,CLR,0.00,WeatherDisplay:10.37,2013-03-24 01:20:00,
2013-03-24 01:30:00,30.6,5.5,30.18,East,96,8.0,15.0,34,0.00,CLR,CLR,0.00,WeatherDisplay:10.37,2013-03-24 01:30:00,
2013-03-24 01:35:00,30.6,5.5,30.18,East,95,9.0,13.0,34,0.00,CLR,CLR,0.00,WeatherDisplay:10.37,2013-03-24 01:35:00,
2013-03-24 01:40:00,30.6,5.5,30.18,ESE,102,10.0,15.0,34,0.00,CLR,CLR,0.00,WeatherDisplay:10.37,2013-03-24 01:40:00,
2013-03-24 01:45:00,30.7,5.6,30.18,East,92,7.0,15.0,34,0.00,CLR,CLR,0.00,WeatherDisplay:10.37,2013-03-24 01:45:00,
2013-03-24 01:50:00,30.7,5.6,30.18,East,83,6.0,13.0,34,0.00,CLR,CLR,0.00,WeatherDisplay:10.37,2013-03-24 01:50:00,
2013-03-24 02:00:00,30.7,5.6,30.18,East,93,7.0,13.0,34,0.00,CLR,CLR,0.00,WeatherDisplay:10.37,2013-03-24 02:00:00,
2013-03-24 02:05:00,30.7,5.6,30.18,East,92,8.0,13.0,34,0.00,CLR,CLR,0.00,WeatherDisplay:10.37,2013-03-24 02:05:00,
2013-03-24 02:10:00,30.6,5.5,30.18,East,101,6.0,13.0,34,0.00,CLR,CLR,0.00,WeatherDisplay:10.37,2013-03-24 02:10:00,
2013-03-24 02:20:00,30.6,4.8,30.18,East,94,3.0,13.0,33,0.00,CLR,CLR,0.00,WeatherDisplay:10.37,2013-03-24 02:20:00,
2013-03-24 02:30:00,30.6,4.8,30.18,East,100,5.0,9.0,33,0.00,CLR,CLR,0.00,WeatherDisplay:10.37,2013-03-24 02:30:00,
2013-03-24 02:40:00,30.6,5.5,30.18,ESE,103,7.0,12.0,34,0.00,CLR,CLR,0.00,WeatherDisplay:10.37,2013-03-24 02:40:00,
2013-03-24 02:50:00,30.4,6.0,30.18,ESE,104,7.0,11.0,35,0.00,CLR,CLR,0.00,WeatherDisplay:10.37,2013-03-24 02:50:00,
2013-03-24 03:00:00,30.4,6.6,30.18,East,91,9.0,12.0,36,0.00,CLR,CLR,0.00,WeatherDisplay:10.37,2013-03-24 03:00:00,
2013-03-24 03:05:00,30.4,6.6,30.18,East,91,9.0,15.0,36,0.00,CLR,CLR,0.00,WeatherDisplay:10.37,2013-03-24 03:05:00,
2013-03-24 03:10:00,30.4,6.6,30.18,ESE,102,7.0,12.0,36,0.00,CLR,CLR,0.00,WeatherDisplay:10.37,2013-03-24 03:10:00,
2013-03-24 03:15:00,30.4,5.9,30.18,ESE,103,9.0,13.0,35,0.00,CLR,CLR,0.00,WeatherDisplay:10.37,2013-03-24 03:15:00,
2013-03-24 03:20:00,30.4,5.9,30.18,East,99,8.0,15.0,35,0.00,CLR,CLR,0.00,WeatherDisplay:10.37,2013-03-24 03:20:00,
2013-03-24 03:30:00,30.4,5.3,30.18,East,100,6.0,15.0,34,0.00,CLR,CLR,0.00,WeatherDisplay:10.37,2013-03-24 03:30:00,
2013-03-24 03:40:00,30.6,5.5,30.18,East,93,6.0,13.0,34,0.00,CLR,CLR,0.00,WeatherDisplay:10.37,2013-03-24 03:40:00,
2013-03-24 03:50:00,30.4,5.3,30.18,East,93,6.0,11.0,34,0.00,CLR,CLR,0.00,WeatherDisplay:10.37,2013-03-24 03:50:00,
2013-03-24 03:55:00,30.4,5.3,30.18,East,89,8.0,15.0,34,0.00,CLR,CLR,0.00,WeatherDisplay:10.37,2013-03-24 03:55:00,
2013-03-24 04:00:00,30.4,5.3,30.18,East,89,6.0,13.0,34,0.00,CLR,CLR,0.00,WeatherDisplay:10.37,2013-03-24 04:00:00,
2013-03-24 04:10:00,30.4,5.3,30.18,East,81,7.0,13.0,34,0.00,CLR,CLR,0.00,WeatherDisplay:10.37,2013-03-24 04:10:00,
2013-03-24 04:15:00,30.4,5.3,30.18,East,86,8.0,13.0,34,0.00,CLR,CLR,0.00,WeatherDisplay:10.37,2013-03-24 04:15:00,
2013-03-24 04:20:00,30.4,5.3,30.18,East,82,10.0,14.0,34,0.00,CLR,CLR,0.00,WeatherDisplay:10.37,2013-03-24 04:20:00,
2013-03-24 04:30:00,30.4,6.6,30.21,East,83,7.0,12.0,36,0.00,CLR,CLR,0.00,WeatherDisplay:10.37,2013-03-24 04:30:00,
2013-03-24 04:35:00,30.4,6.6,30.21,East,87,8.0,13.0,36,0.00,CLR,CLR,0.00,WeatherDisplay:10.37,2013-03-24 04:35:00,
2013-03-24 04:40:00,30.4,6.6,30.21,East,82,6.0,12.0,36,0.00,CLR,CLR,0.00,WeatherDisplay:10.37,2013-03-24 04:40:00,
2013-03-24 04:50:00,30.4,6.6,30.21,East,88,8.0,15.0,36,0.00,CLR,CLR,0.00,WeatherDisplay:10.37,2013-03-24 04:50:00,
2013-03-24 05:00:00,30.2,6.4,30.21,East,85,8.0,15.0,36,0.00,CLR,CLR,0.00,WeatherDisplay:10.37,2013-03-24 05:00:00,
2013-03-24 05:10:00,30.2,5.2,30.21,East,100,6.0,13.0,34,0.00,CLR,CLR,0.00,WeatherDisplay:10.37,2013-03-24 05:10:00,
2013-03-24 05:20:00,30.2,4.5,30.21,ENE,74,7.0,11.0,33,0.00,CLR,CLR,0.00,WeatherDisplay:10.37,2013-03-24 05:20:00,
2013-03-24 05:30:00,30.4,4.7,30.21,East,83,9.0,14.0,33,0.00,CLR,CLR,0.00,WeatherDisplay:10.37,2013-03-24 05:30:00,
2013-03-24 05:40:00,30.4,4.7,30.21,ENE,70,10.0,17.0,33,0.00,CLR,CLR,0.00,WeatherDisplay:10.37,2013-03-24 05:40:00,
2013-03-24 05:50:00,30.2,5.2,30.21,ENE,62,7.0,15.0,34,0.00,CLR,CLR,0.00,WeatherDisplay:10.37,2013-03-24 05:50:00,
2013-03-24 06:00:00,30.2,5.2,30.21,East,90,8.0,15.0,34,0.00,CLR,CLR,0.00,WeatherDisplay:10.37,2013-03-24 06:00:00,
2013-03-24 06:05:00,30.4,4.7,30.21,East,79,6.0,15.0,33,0.00,CLR,CLR,0.00,WeatherDisplay:10.37,2013-03-24 06:05:00,
2013-03-24 06:10:00,30.4,4.7,30.21,East,93,9.0,16.0,33,0.00,CLR,CLR,0.00,WeatherDisplay:10.37,2013-03-24 06:10:00,
2013-03-24 06:20:00,30.4,4.0,30.21,East,88,8.0,15.0,32,0.00,CLR,CLR,0.00,WeatherDisplay:10.37,2013-03-24 06:20:00,
2013-03-24 06:30:00,30.4,4.0,30.21,East,91,8.0,13.0,32,0.00,CLR,CLR,0.00,WeatherDisplay:10.37,2013-03-24 06:30:00,
2013-03-24 06:40:00,30.4,4.0,30.21,East,93,9.0,15.0,32,0.00,CLR,CLR,0.00,WeatherDisplay:10.37,2013-03-24 06:40:00,
2013-03-24 06:50:00,30.6,4.1,30.21,East,93,8.0,14.0,32,0.00,CLR,CLR,0.00,WeatherDisplay:10.37,2013-03-24 06:50:00,
2013-03-24 07:00:00,30.7,4.3,30.21,East,97,8.0,13.0,32,0.00,CLR,CLR,0.00,WeatherDisplay:10.37,2013-03-24 07:00:00,
2013-03-24 07:10:00,30.7,4.3,30.21,East,87,10.0,16.0,32,0.00,CLR,CLR,0.00,WeatherDisplay:10.37,2013-03-24 07:10:00,
2013-03-24 07:20:00,30.9,4.5,30.21,East,101,13.0,17.0,32,0.00,CLR,CLR,0.00,WeatherDisplay:10.37,2013-03-24 07:20:00,
2013-03-24 07:30:00,30.9,4.5,30.21,East,99,10.0,18.0,32,0.00,CLR,CLR,0.00,WeatherDisplay:10.37,2013-03-24 07:30:00,
2013-03-24 07:40:00,31.1,4.6,30.21,East,94,10.0,15.0,32,0.00,CLR,CLR,0.00,WeatherDisplay:10.37,2013-03-24 07:40:00,
2013-03-24 07:50:00,31.1,4.6,30.21,East,92,10.0,17.0,32,0.00,CLR,CLR,0.00,WeatherDisplay:10.37,2013-03-24 07:50:00,
2013-03-24 08:00:00,31.2,4.7,30.21,East,92,12.0,18.0,32,0.00,CLR,CLR,0.00,WeatherDisplay:10.37,2013-03-24 08:00:00,
2013-03-24 08:05:00,31.3,4.8,30.21,East,94,14.0,15.0,32,0.00,CLR,CLR,0.00,WeatherDisplay:10.37,2013-03-24 08:05:00,
2013-03-24 08:10:00,31.3,4.8,30.21,East,91,8.0,15.0,32,0.00,CLR,CLR,0.00,WeatherDisplay:10.37,2013-03-24 08:10:00,
2013-03-24 08:20:00,31.5,4.9,30.21,East,98,13.0,20.0,32,0.00,CLR,CLR,0.00,WeatherDisplay:10.37,2013-03-24 08:20:00,
2013-03-24 08:30:00,31.6,5.1,30.21,East,90,12.0,15.0,32,0.00,CLR,CLR,0.00,WeatherDisplay:10.37,2013-03-24 08:30:00,
2013-03-24 08:40:00,31.8,5.3,30.21,East,96,14.0,17.0,32,0.00,CLR,CLR,0.00,WeatherDisplay:10.37,2013-03-24 08:40:00,
2013-03-24 08:50:00,32.1,5.5,30.21,East,94,9.0,18.0,32,0.00,CLR,CLR,0.00,WeatherDisplay:10.37,2013-03-24 08:50:00,
2013-03-24 09:00:00,32.2,5.6,30.21,East,92,10.0,17.0,32,0.00,CLR,CLR,0.00,WeatherDisplay:10.37,2013-03-24 09:00:00,
2013-03-24 09:10:00,32.3,5.0,30.21,East,93,10.0,15.0,31,0.00,CLR,CLR,0.00,WeatherDisplay:10.37,2013-03-24 09:10:00,
2013-03-24 09:20:00,32.5,5.2,30.21,East,89,13.0,15.0,31,0.00,CLR,CLR,0.00,WeatherDisplay:10.37,2013-03-24 09:20:00,
2013-03-24 09:30:00,32.7,5.4,30.21,East,93,12.0,17.0,31,0.00,CLR,CLR,0.00,WeatherDisplay:10.37,2013-03-24 09:30:00,
2013-03-24 09:40:00,32.5,5.2,30.21,East,90,14.0,23.0,31,0.00,CLR,CLR,0.00,WeatherDisplay:10.37,2013-03-24 09:40:00,
2013-03-24 09:50:00,32.5,5.2,30.21,ESE,104,13.0,20.0,31,0.00,CLR,CLR,0.00,WeatherDisplay:10.37,2013-03-24 09:50:00,
2013-03-24 10:00:00,32.5,5.2,30.21,East,99,15.0,23.0,31,0.00,CLR,CLR,0.00,WeatherDisplay:10.37,2013-03-24 10:00:00,
2013-03-24 10:05:00,32.8,5.4,30.21,East,85,10.0,23.0,31,0.00,CLR,CLR,0.00,WeatherDisplay:10.37,2013-03-24 10:05:00,
2013-03-24 10:10:00,33.1,5.7,30.21,East,87,13.0,15.0,31,0.00,CLR,CLR,0.00,WeatherDisplay:10.37,2013-03-24 10:10:00,
2013-03-24 10:20:00,33.1,5.7,30.21,East,94,9.0,15.0,31,0.00,CLR,CLR,0.00,WeatherDisplay:10.37,2013-03-24 10:20:00,
2013-03-24 10:30:00,33.6,6.1,30.21,East,86,10.0,15.0,31,0.00,CLR,CLR,0.00,WeatherDisplay:10.37,2013-03-24 10:30:00,
2013-03-24 10:35:00,33.5,5.3,30.21,East,89,8.0,14.0,30,0.00,CLR,CLR,0.00,WeatherDisplay:10.37,2013-03-24 10:35:00,
2013-03-24 10:40:00,33.5,5.3,30.21,East,94,15.0,25.0,30,0.00,CLR,CLR,0.00,WeatherDisplay:10.37,2013-03-24 10:40:00,
2013-03-24 10:50:00,33.6,5.4,30.21,East,93,9.0,15.0,30,0.00,CLR,CLR,0.00,WeatherDisplay:10.37,2013-03-24 10:50:00,
2013-03-24 11:00:00,33.4,5.3,30.21,East,95,13.0,17.0,30,0.00,CLR,CLR,0.00,WeatherDisplay:10.37,2013-03-24 11:00:00,
2013-03-24 11:05:00,33.4,5.3,30.21,East,93,13.0,18.0,30,0.00,CLR,CLR,0.00,WeatherDisplay:10.37,2013-03-24 11:05:00,
2013-03-24 11:10:00,33.4,5.3,30.21,East,95,6.0,22.0,30,0.00,CLR,CLR,0.00,WeatherDisplay:10.37,2013-03-24 11:10:00,
2013-03-24 11:20:00,33.3,5.1,30.21,East,95,9.0,17.0,30,0.00,CLR,CLR,0.00,WeatherDisplay:10.37,2013-03-24 11:20:00,
2013-03-24 11:30:00,33.3,5.1,30.21,East,94,10.0,18.0,30,0.00,CLR,CLR,0.00,WeatherDisplay:10.37,2013-03-24 11:30:00,
2013-03-24 11:40:00,33.2,5.0,30.21,East,96,12.0,16.0,30,0.00,CLR,CLR,0.00,WeatherDisplay:10.37,2013-03-24 11:40:00,
2013-03-24 11:50:00,33.1,5.7,30.21,East,88,10.0,14.0,31,0.00,CLR,CLR,0.00,WeatherDisplay:10.37,2013-03-24 11:50:00,
2013-03-24 12:00:00,33.3,5.1,30.21,East,91,9.0,18.0,30,0.00,CLR,CLR,0.00,WeatherDisplay:10.37,2013-03-24 12:00:00,
2013-03-24 12:10:00,33.4,5.3,30.21,East,94,14.0,17.0,30,0.00,CLR,CLR,0.00,WeatherDisplay:10.37,2013-03-24 12:10:00,
2013-03-24 12:20:00,33.4,5.3,30.21,East,92,12.0,20.0,30,0.00,CLR,CLR,0.00,WeatherDisplay:10.37,2013-03-24 12:20:00,
2013-03-24 12:30:00,33.3,5.8,30.21,East,96,12.0,17.0,31,0.00,CLR,CLR,0.00,WeatherDisplay:10.37,2013-03-24 12:30:00,
2013-03-24 12:40:00,33.8,5.6,30.21,ESE,105,12.0,17.0,30,0.00,CLR,CLR,0.00,WeatherDisplay:10.37,2013-03-24 12:40:00,
2013-03-24 12:50:00,33.8,5.6,30.21,ESE,106,7.0,17.0,30,0.00,CLR,CLR,0.00,WeatherDisplay:10.37,2013-03-24 12:50:00,
2013-03-24 13:00:00,33.8,5.6,30.21,ESE,106,13.0,16.0,30,0.00,CLR,CLR,0.00,WeatherDisplay:10.37,2013-03-24 13:00:00,
2013-03-24 13:10:00,34.2,3.6,30.21,East,97,10.0,13.0,27,0.00,CLR,CLR,0.00,WeatherDisplay:10.37,2013-03-24 13:10:00,
2013-03-24 13:20:00,34.2,3.6,30.21,East,88,14.0,20.0,27,0.00,CLR,CLR,0.00,WeatherDisplay:10.37,2013-03-24 13:20:00,
2013-03-24 13:30:00,34.2,3.6,30.21,East,97,12.0,15.0,27,0.00,CLR,CLR,0.00,WeatherDisplay:10.37,2013-03-24 13:30:00,
2013-03-24 13:35:00,34.3,3.8,30.21,East,93,7.0,17.0,27,0.00,CLR,CLR,0.00,WeatherDisplay:10.37,2013-03-24 13:35:00,
2013-03-24 13:40:00,34.3,3.8,30.21,East,96,10.0,14.0,27,0.00,CLR,CLR,0.00,WeatherDisplay:10.37,2013-03-24 13:40:00,
2013-03-24 13:45:00,34.5,3.9,30.21,East,92,9.0,15.0,27,0.00,CLR,CLR,0.00,WeatherDisplay:10.37,2013-03-24 13:45:00,
2013-03-24 13:50:00,34.7,4.1,30.21,East,86,7.0,18.0,27,0.00,CLR,CLR,0.00,WeatherDisplay:10.37,2013-03-24 13:50:00,
2013-03-24 14:00:00,34.2,5.9,30.21,East,101,13.0,15.0,30,0.00,CLR,CLR,0.00,WeatherDisplay:10.37,2013-03-24 14:00:00,
2013-03-24 14:05:00,33.8,5.6,30.21,East,98,12.0,20.0,30,0.00,CLR,CLR,0.00,WeatherDisplay:10.37,2013-03-24 14:05:00,
2013-03-24 14:10:00,34.2,6.0,30.21,East,98,8.0,18.0,30,0.00,CLR,CLR,0.00,WeatherDisplay:10.37,2013-03-24 14:10:00,
2013-03-24 14:20:00,35.1,4.4,30.21,ESE,102,8.0,13.0,27,0.00,CLR,CLR,0.00,WeatherDisplay:10.37,2013-03-24 14:20:00,
2013-03-24 14:30:00,34.6,6.3,30.21,East,92,9.0,20.0,30,0.00,CLR,CLR,0.00,WeatherDisplay:10.37,2013-03-24 14:30:00,
2013-03-24 14:40:00,34.7,6.4,30.21,East,99,9.0,13.0,30,0.00,CLR,CLR,0.00,WeatherDisplay:10.37,2013-03-24 14:40:00,
2013-03-24 14:50:00,34.3,6.1,30.21,East,97,8.0,17.0,30,0.00,CLR,CLR,0.00,WeatherDisplay:10.37,2013-03-24 14:50:00,
2013-03-24 15:00:00,33.8,6.3,30.21,East,91,9.0,17.0,31,0.00,CLR,CLR,0.00,WeatherDisplay:10.37,2013-03-24 15:00:00,
2013-03-24 15:05:00,33.3,5.9,30.24,East,89,9.0,19.0,31,0.00,CLR,CLR,0.00,WeatherDisplay:10.37,2013-03-24 15:05:00,
2013-03-24 15:10:00,33.1,6.4,30.24,East,95,12.0,15.0,32,0.00,CLR,CLR,0.00,WeatherDisplay:10.37,2013-03-24 15:10:00,
2013-03-24 15:20:00,32.9,6.2,30.24,East,88,8.0,13.0,32,0.00,CLR,CLR,0.00,WeatherDisplay:10.37,2013-03-24 15:20:00,
2013-03-24 15:30:00,32.9,6.2,30.24,East,96,9.0,15.0,32,0.00,CLR,CLR,0.00,WeatherDisplay:10.37,2013-03-24 15:30:00,
2013-03-24 15:40:00,33.1,5.7,30.24,East,99,12.0,20.0,31,0.00,CLR,CLR,0.00,WeatherDisplay:10.37,2013-03-24 15:40:00,
2013-03-24 15:50:00,33.3,5.8,30.24,East,87,12.0,15.0,31,0.00,CLR,CLR,0.00,WeatherDisplay:10.37,2013-03-24 15:50:00,
2013-03-24 16:00:00,33.4,6.0,30.24,East,91,7.0,13.0,31,0.00,CLR,CLR,0.00,WeatherDisplay:10.37,2013-03-24 16:00:00,
2013-03-24 16:10:00,33.3,5.8,30.24,East,95,12.0,17.0,31,0.00,CLR,CLR,0.00,WeatherDisplay:10.37,2013-03-24 16:10:00,
2013-03-24 16:15:00,33.1,5.7,30.24,East,97,9.0,18.0,31,0.00,CLR,CLR,0.00,WeatherDisplay:10.37,2013-03-24 16:15:00,
2013-03-24 16:20:00,32.9,6.2,30.24,East,80,5.0,15.0,32,0.00,CLR,CLR,0.00,WeatherDisplay:10.37,2013-03-24 16:20:00,
2013-03-24 16:30:00,32.7,7.4,30.24,East,90,8.0,14.0,34,0.00,CLR,CLR,0.00,WeatherDisplay:10.37,2013-03-24 16:30:00,
2013-03-24 16:40:00,32.6,7.3,30.24,East,94,8.0,20.0,34,0.00,CLR,CLR,0.00,WeatherDisplay:10.37,2013-03-24 16:40:00,
2013-03-24 16:50:00,32.5,7.9,30.24,East,94,12.0,14.0,35,0.00,CLR,CLR,0.00,WeatherDisplay:10.37,2013-03-24 16:50:00,
2013-03-24 17:00:00,32.5,7.2,30.24,East,92,9.0,17.0,34,0.00,CLR,CLR,0.00,WeatherDisplay:10.37,2013-03-24 17:00:00,
2013-03-24 17:10:00,32.5,7.2,30.24,East,97,8.0,15.0,34,0.00,CLR,CLR,0.00,WeatherDisplay:10.37,2013-03-24 17:10:00,
2013-03-24 17:20:00,32.4,7.7,30.24,East,90,8.0,16.0,35,0.00,CLR,CLR,0.00,WeatherDisplay:10.37,2013-03-24 17:20:00,
2013-03-24 17:30:00,32.4,8.9,30.24,East,94,8.0,16.0,37,0.00,CLR,CLR,0.00,WeatherDisplay:10.37,2013-03-24 17:30:00,
2013-03-24 17:40:00,32.2,9.4,30.24,East,87,8.0,14.0,38,0.00,CLR,CLR,0.00,WeatherDisplay:10.37,2013-03-24 17:40:00,
2013-03-24 17:50:00,32.2,8.8,30.24,East,91,10.0,14.0,37,0.00,CLR,CLR,0.00,WeatherDisplay:10.37,2013-03-24 17:50:00,
2013-03-24 18:00:00,32.2,9.4,30.24,East,101,6.0,15.0,38,0.00,CLR,CLR,0.00,WeatherDisplay:10.37,2013-03-24 18:00:00,
2013-03-24 18:05:00,32.2,8.8,30.24,East,101,8.0,15.0,37,0.00,CLR,CLR,0.00,WeatherDisplay:10.37,2013-03-24 18:05:00,
2013-03-24 18:10:00,32.2,8.2,30.24,East,87,7.0,17.0,36,0.00,CLR,CLR,0.00,WeatherDisplay:10.37,2013-03-24 18:10:00,
2013-03-24 18:15:00,32.0,7.4,30.24,East,94,10.0,17.0,35,0.00,CLR,CLR,0.00,WeatherDisplay:10.37,2013-03-24 18:15:00,
2013-03-24 18:20:00,32.0,7.4,30.24,ESE,102,10.0,15.0,35,0.00,CLR,CLR,0.00,WeatherDisplay:10.37,2013-03-24 18:20:00,
2013-03-24 18:30:00,31.8,7.2,30.24,East,95,8.0,17.0,35,0.00,CLR,CLR,0.00,WeatherDisplay:10.37,2013-03-24 18:30:00,
2013-03-24 18:40:00,31.5,6.9,30.24,East,94,10.0,13.0,35,0.00,CLR,CLR,0.00,WeatherDisplay:10.37,2013-03-24 18:40:00,
2013-03-24 18:50:00,31.5,6.3,30.24,East,89,13.0,16.0,34,0.00,CLR,CLR,0.00,WeatherDisplay:10.37,2013-03-24 18:50:00,
2013-03-24 19:00:00,31.5,6.3,30.24,East,80,8.0,17.0,34,0.00,CLR,CLR,0.00,WeatherDisplay:10.37,2013-03-24 19:00:00,
2013-03-24 19:05:00,31.6,6.4,30.24,East,90,13.0,20.0,34,0.00,CLR,CLR,0.00,WeatherDisplay:10.37,2013-03-24 19:05:00,
2013-03-24 19:10:00,31.6,6.4,30.24,East,96,9.0,13.0,34,0.00,CLR,CLR,0.00,WeatherDisplay:10.37,2013-03-24 19:10:00,
2013-03-24 19:20:00,31.6,6.4,30.24,East,90,7.0,15.0,34,0.00,CLR,CLR,0.00,WeatherDisplay:10.37,2013-03-24 19:20:00,
2013-03-24 19:30:00,31.6,7.1,30.24,East,82,8.0,14.0,35,0.00,CLR,CLR,0.00,WeatherDisplay:10.37,2013-03-24 19:30:00,
2013-03-24 19:40:00,31.6,6.4,30.24,East,86,8.0,17.0,34,0.00,CLR,CLR,0.00,WeatherDisplay:10.37,2013-03-24 19:40:00,
2013-03-24 19:50:00,31.6,7.1,30.24,East,87,10.0,13.0,35,0.00,CLR,CLR,0.00,WeatherDisplay:10.37,2013-03-24 19:50:00,
2013-03-24 20:00:00,31.6,7.1,30.24,East,93,12.0,19.0,35,0.00,CLR,CLR,0.00,WeatherDisplay:10.37,2013-03-24 20:00:00,
2013-03-24 20:05:00,31.6,7.1,30.24,East,89,10.0,18.0,35,0.00,CLR,CLR,0.00,WeatherDisplay:10.37,2013-03-24 20:05:00,
2013-03-24 20:10:00,31.6,6.4,30.24,East,90,10.0,17.0,34,0.00,CLR,CLR,0.00,WeatherDisplay:10.37,2013-03-24 20:10:00,
2013-03-24 20:20:00,31.8,6.6,30.24,East,96,10.0,17.0,34,0.00,CLR,CLR,0.00,WeatherDisplay:10.37,2013-03-24 20:20:00,
2013-03-24 20:25:00,31.8,6.6,30.24,East,88,12.0,20.0,34,0.00,CLR,CLR,0.00,WeatherDisplay:10.37,2013-03-24 20:25:00,
2013-03-24 20:36:00,31.6,6.4,30.25,East,91,8.0,13.0,34,0.00,CLR,CLR,0.00,WeatherDisplay:10.37,2013-03-24 20:36:00,
2013-03-24 20:45:00,31.6,6.4,30.27,East,97,6.0,12.0,34,0.00,CLR,CLR,0.00,WeatherDisplay:10.37,2013-03-24 20:45:00,
2013-03-24 20:50:00,31.6,6.4,30.27,East,99,8.0,14.0,34,0.00,CLR,CLR,0.00,WeatherDisplay:10.37,2013-03-24 20:50:00,
2013-03-24 21:00:00,31.8,6.6,30.27,East,87,8.0,16.0,34,0.00,CLR,CLR,0.00,WeatherDisplay:10.37,2013-03-24 21:00:00,
2013-03-24 21:05:00,31.6,6.4,30.27,East,88,8.0,15.0,34,0.00,CLR,CLR,0.00,WeatherDisplay:10.37,2013-03-24 21:05:00,
2013-03-24 21:10:00,31.7,6.5,30.27,East,93,8.0,16.0,34,0.00,CLR,CLR,0.00,WeatherDisplay:10.37,2013-03-24 21:10:00,
2013-03-24 21:20:00,31.6,6.4,30.27,East,91,8.0,14.0,34,0.00,CLR,CLR,0.00,WeatherDisplay:10.37,2013-03-24 21:20:00,
2013-03-24 21:30:00,31.8,6.6,30.27,East,84,9.0,14.0,34,0.00,CLR,CLR,0.00,WeatherDisplay:10.37,2013-03-24 21:30:00,
2013-03-24 21:35:00,31.8,6.6,30.27,East,90,8.0,14.0,34,0.00,CLR,CLR,0.00,WeatherDisplay:10.37,2013-03-24 21:35:00,
2013-03-24 21:45:00,31.6,7.1,30.27,East,93,7.0,10.0,35,0.00,CLR,CLR,0.00,WeatherDisplay:10.37,2013-03-24 21:45:00,
2013-03-24 21:50:00,31.6,7.1,30.27,East,88,7.0,15.0,35,0.00,CLR,CLR,0.00,WeatherDisplay:10.37,2013-03-24 21:50:00,
2013-03-24 22:00:00,31.6,7.1,30.27,East,93,7.0,14.0,35,0.00,CLR,CLR,0.00,WeatherDisplay:10.37,2013-03-24 22:00:00,
2013-03-24 22:05:00,31.6,6.4,30.27,East,92,7.0,13.0,34,0.00,CLR,CLR,0.00,WeatherDisplay:10.37,2013-03-24 22:05:00,
2013-03-24 22:10:00,31.6,6.4,30.27,East,92,9.0,13.0,34,0.00,CLR,CLR,0.00,WeatherDisplay:10.37,2013-03-24 22:10:00,
2013-03-24 22:20:00,31.6,7.1,30.27,East,96,7.0,12.0,35,0.00,CLR,CLR,0.00,WeatherDisplay:10.37,2013-03-24 22:20:00,
2013-03-24 22:30:00,31.6,6.4,30.27,East,91,10.0,13.0,34,0.00,CLR,CLR,0.00,WeatherDisplay:10.37,2013-03-24 22:30:00,
2013-03-24 22:40:00,31.6,5.8,30.27,East,95,8.0,13.0,33,0.00,CLR,CLR,0.00,WeatherDisplay:10.37,2013-03-24 22:40:00,
2013-03-24 22:45:00,31.6,5.8,30.27,East,94,8.0,15.0,33,0.00,CLR,CLR,0.00,WeatherDisplay:10.37,2013-03-24 22:45:00,
2013-03-24 22:50:00,31.6,5.8,30.27,East,93,10.0,17.0,33,0.00,CLR,CLR,0.00,WeatherDisplay:10.37,2013-03-24 22:50:00,
2013-03-24 23:00:00,31.6,5.8,30.27,East,87,9.0,12.0,33,0.00,CLR,CLR,0.00,WeatherDisplay:10.37,2013-03-24 23:00:00,
2013-03-24 23:05:00,31.6,5.8,30.27,East,89,8.0,13.0,33,0.00,CLR,CLR,0.00,WeatherDisplay:10.37,2013-03-24 23:05:00,
2013-03-24 23:10:00,31.5,6.3,30.27,East,97,8.0,10.0,34,0.00,CLR,CLR,0.00,WeatherDisplay:10.37,2013-03-24 23:10:00,
2013-03-24 23:20:00,31.5,6.3,30.27,East,95,7.0,12.0,34,0.00,CLR,CLR,0.00,WeatherDisplay:10.37,2013-03-24 23:20:00,
2013-03-24 23:30:00,31.5,6.3,30.27,East,100,8.0,13.0,34,0.00,CLR,CLR,0.00,WeatherDisplay:10.37,2013-03-24 23:30:00,
2013-03-24 23:40:00,31.3,6.8,30.27,East,95,8.0,15.0,35,0.00,CLR,CLR,0.00,WeatherDisplay:10.37,2013-03-24 23:40:00,
2013-03-24 23:50:00,31.3,7.4,30.27,East,90,7.0,12.0,36,0.00,CLR,CLR,0.00,WeatherDisplay:10.37,2013-03-24 23:50:00,
2013-03-24 23:55:00,31.3,7.4,30.27,East,96,8.0,13.0,36,0.00,CLR,CLR,0.00,WeatherDisplay:10.37,2013-03-24 23:55:00,